Content
SEND FEEDBACK

Daily
Averages
Monthly
Summary
United States of America

SUMMER SHADE, KENTUCKY


Home > North America > United States > Kentucky
Elevation: 853 feet     Latitude: 36 52N     Longitude: 085 43W

WEATHER
 
SELECT A DAY
Number of Records: 229,797;   Date Range: 10/21/04 - 10/20/14
 
SHARE

PRINT THIS DATA

[ ← Previous Day ]
WEATHER ALMANAC - JANUARY 31, 2013
[ Next Day → ]
[ °C ]   °F
Weather ElementAverageHighLow
Temperature33.8 °F40.1 °F (3:35 pm)22.6 °F (11:55 pm)
Dewpoint7.5 °F29.7 °F (9:15 pm)-1.3 °F (2:15 pm)
Humidity35.3 %88 % (9:15 pm)19 % (2:15 pm)
Barometer30.00 in30.20 in (11:55 pm)29.87 in (12:35 am)
Wind Speed12.7 mph19.6 mph (10:15 am)
Wind Gust28.8 mph (10:15 pm)
Weather ElementAverage
Visibility9.2 mi
Wind DirectionWSW (262 °)

Weather ElementTotal
Precipitation---
Heating Degree Days33.7 (Base 65)
Averaged from 69 records on January 31, 2013
WEATHER CONDITIONS BREAKOUT
WIND DIRECTION BREAKOUT
WEATHER BY HOUR - JANUARY 31, 2013
[ °C ]   °F
Local TimeTemperatureDewpointHumidityBarometerVisibilityWind DirectionWind SpeedGust SpeedPrecipitationEventsConditions
12:35 AM32.7 °F9.5 °F38 %29.87 in10.0 miWest (280°)13.8 mph26.5 mphOvercast
12:55 AM32.2 °F9.1 °F38 %29.88 in10.0 miWest (280°)15.0 mph19.6 mphOvercast
1:15 AM32.0 °F9.3 °F39 %29.88 in10.0 miWest (270°)9.2 mph21.9 mphOvercast
1:35 AM32.0 °F9.9 °F40 %29.89 in10.0 miWest (270°)9.2 mph18.4 mphOvercast
1:55 AM32.0 °F10.0 °F40 %29.89 in10.0 miWNW (290°)8.1 mphOvercast
2:15 AM32.0 °F9.9 °F40 %29.89 in10.0 miWest (280°)11.5 mph19.6 mphOvercast
2:35 AM32.0 °F8.4 °F37 %29.90 in10.0 miWest (280°)13.8 mph17.3 mphOvercast
2:55 AM31.6 °F9.0 °F39 %29.91 in10.0 miWest (280°)9.2 mphOvercast
3:15 AM31.6 °F9.5 °F40 %29.91 in10.0 miWest (280°)6.9 mph18.4 mphOvercast
3:35 AM31.5 °F8.2 °F38 %29.91 in10.0 miWest (260°)11.5 mph16.1 mphOvercast
3:55 AM31.6 °F7.0 °F35 %29.91 in10.0 miWest (270°)15.0 mph21.9 mphOvercast
4:15 AM31.5 °F3.9 °F31 %29.92 in10.0 miWNW (290°)11.5 mph19.6 mphOvercast
4:35 AM31.1 °F3.2 °F31 %29.93 in10.0 miWest (280°)8.1 mphOvercast
4:55 AM31.1 °F3.7 °F31 %29.93 in10.0 miWest (260°)10.4 mph17.3 mphOvercast
5:15 AM31.1 °F4.5 °F32 %29.93 in10.0 miWest (260°)9.2 mphOvercast
5:35 AM31.1 °F3.7 °F31 %29.94 in10.0 miWest (260°)10.4 mphOvercast
6:15 AM31.1 °F4.6 °F33 %29.96 in10.0 miWest (270°)11.5 mph19.6 mphOvercast
6:35 AM31.1 °F5.2 °F33 %29.96 in10.0 miWest (270°)8.1 mph16.1 mphOvercast
6:55 AM31.1 °F5.9 °F35 %29.98 in10.0 miWest (280°)9.2 mph17.3 mphOvercast
7:15 AM30.4 °F6.4 °F36 %30.00 in10.0 miNW (310°)9.2 mphOvercast
7:35 AM29.8 °F6.1 °F37 %30.00 in10.0 miWest (280°)8.1 mphOvercast
7:55 AM29.8 °F5.4 °F35 %30.02 in10.0 miWest (280°)8.1 mphOvercast
8:15 AM30.0 °F6.4 °F37 %30.03 in5.0 miWest (270°)9.2 mph17.3 mphSnowLight Snow
8:35 AM30.0 °F8.4 °F40 %30.03 in10.0 miWSW (240°)8.1 mphOvercast
8:55 AM31.6 °F7.7 °F37 %30.02 in10.0 miWSW (250°)16.1 mphMostly Cloudy
9:15 AM32.2 °F4.5 °F31 %30.04 in10.0 miWest (270°)11.5 mph20.7 mphMostly Cloudy
9:35 AM32.0 °F4.8 °F32 %30.04 in10.0 miWSW (250°)16.1 mph19.6 mphOvercast
9:55 AM32.5 °F6.1 °F33 %30.05 in10.0 miWSW (240°)18.4 mph21.9 mphOvercast
10:15 AM32.9 °F5.9 °F32 %30.06 in10.0 miWSW (250°)19.6 mph26.5 mphOvercast
10:35 AM33.3 °F6.1 °F32 %30.06 in10.0 miWSW (250°)16.1 mph25.3 mphOvercast
10:55 AM34.3 °F5.0 °F29 %30.04 in10.0 miWSW (240°)13.8 mph24.2 mphMostly Cloudy
11:15 AM35.2 °F5.2 °F28 %30.04 in10.0 miWest (260°)12.7 mph21.9 mphMostly Cloudy
11:35 AM35.8 °F4.8 °F27 %30.05 in10.0 miWSW (250°)18.4 mph25.3 mphMostly Cloudy
11:55 AM36.9 °F4.8 °F26 %30.04 in10.0 miWest (270°)16.1 mph23.0 mphOvercast
12:15 PM38.1 °F2.8 °F23 %30.03 in10.0 miWest (260°)15.0 mph25.3 mphOvercast
12:35 PM37.9 °F1.9 °F22 %30.02 in10.0 miWSW (250°)16.1 mph23.0 mphMostly Cloudy
12:55 PM38.5 °F3.4 °F23 %30.01 in10.0 miWest (260°)13.8 mph24.2 mphScattered Clouds
1:15 PM38.8 °F1.2 °F21 %30.01 in10.0 miWest (260°)12.7 mph19.6 mphScattered Clouds
1:35 PM38.1 °F1.2 °F21 %30.01 in10.0 miWSW (250°)15.0 mph20.7 mphMostly Cloudy
2:15 PM38.7 °F-1.3 °F19 %30.01 in10.0 miWSW (250°)18.4 mph25.3 mphOvercast
2:35 PM38.7 °F-0.2 °F19 %30.01 in10.0 miWSW (240°)15.0 mph24.2 mphOvercast
2:55 PM38.7 °F0.3 °F20 %30.01 in10.0 miWSW (250°)12.7 mph17.3 mphOvercast
3:15 PM38.8 °F1.9 °F21 %30.00 in10.0 miWSW (250°)11.5 mph16.1 mphOvercast
3:35 PM40.1 °F2.7 °F21 %30.00 in10.0 miWSW (250°)11.5 mphMostly Cloudy
3:55 PM39.4 °F1.8 °F21 %30.00 in10.0 miWSW (250°)16.1 mph19.6 mphOvercast
4:15 PM39.0 °F3.2 °F22 %30.00 in10.0 miWSW (250°)15.0 mph21.9 mphOvercast
4:35 PM38.7 °F3.4 °F23 %29.99 in10.0 miWSW (250°)9.2 mphOvercast
4:55 PM38.7 °F4.5 °F24 %30.00 in10.0 miWSW (250°)10.4 mphOvercast
5:15 PM38.7 °F4.1 °F24 %30.00 in10.0 miWest (260°)16.1 mph20.7 mphOvercast
5:35 PM37.9 °F7.5 °F28 %30.01 in10.0 miWSW (250°)13.8 mph21.9 mphOvercast
5:55 PM37.4 °F10.9 °F34 %30.01 in7.0 miWSW (250°)9.2 mph21.9 mphSnowLight Snow
6:15 PM37.4 °F11.8 °F35 %30.01 in10.0 miWSW (250°)12.7 mph18.4 mphOvercast
6:35 PM37.6 °F11.3 °F34 %30.00 in10.0 miWSW (240°)11.5 mphOvercast
6:55 PM37.8 °F10.6 °F33 %30.00 in10.0 miWSW (240°)8.1 mphOvercast
7:15 PM37.9 °F10.8 °F33 %29.98 in10.0 miWSW (240°)8.1 mphOvercast
7:35 PM38.3 °F10.4 °F32 %29.98 in10.0 miWSW (240°)8.1 mphOvercast
7:55 PM38.8 °F8.6 °F29 %29.98 in10.0 miWest (260°)18.4 mph23.0 mphOvercast
8:15 PM38.8 °F10.8 °F32 %29.99 in10.0 miWest (280°)13.8 mph24.2 mphOvercast
8:35 PM36.7 °F17.2 °F45 %30.01 in5.0 miWest (270°)15.0 mph27.6 mphSnowLight Snow
8:55 PM34.2 °F23.9 °F66 %30.03 in1.0 miWest (280°)16.1 mph25.3 mphSnowLight Snow
9:15 PM32.9 °F29.7 °F88 %30.04 in0.8 miWest (280°)13.8 mph25.3 mphSnowLight Snow
9:35 PM32.2 °F28.6 °F87 %30.05 in0.5 miNorthSnowSnow
9:55 PM30.7 °F24.4 °F77 %30.08 in1.8 miNW (310°)16.1 mphSnowLight Snow
10:15 PM28.8 °F14.5 °F55 %30.11 in7.0 miWNW (300°)15.0 mph28.8 mphSnowLight Snow
10:35 PM27.9 °F13.3 °F54 %30.12 in10.0 miNW (310°)10.4 mph28.8 mphOvercast
10:55 PM26.6 °F9.9 °F49 %30.14 in10.0 miWNW (290°)13.8 mph23.0 mphOvercast
11:15 PM25.3 °F7.0 °F46 %30.16 in10.0 miWNW (290°)15.0 mph24.2 mphOvercast
11:35 PM23.9 °F3.7 °F42 %30.18 in10.0 miWNW (290°)16.1 mphMostly Cloudy
11:55 PM22.6 °F1.4 °F40 %30.20 in10.0 miNW (310°)13.8 mph27.6 mphMostly Cloudy
Hourly data recorded from KGLW, located miles away from Summer Shade, Kentucky







STORIES FROM OUR PARTNERS